Regional Weather Roundup
Issued by NWS

Home | Current Version | Previous Version | Text Only | Print | Product List | Glossary On
Versions: 1 2 3 4 5 6 7 8 9 10 11 12 13 14 15 16 17 18 19 20 21 22 23 24 25 26 27 28 29 30 31 32 33 34 35 36 37 38 39 40 41 42 43 44 45 46 47 48 49 50
000
ASUS43 KOAX 241010
RWRNE

WEATHER ROUNDUP FOR NEBRASKA
NATIONAL WEATHER SERVICE OMAHA NE
500 AM CDT TUE MAY 24 2016

NOTES: SATELLITE DATA IS BEING USED TO AUGMENT CLOUD COVER ABOVE
       12000 FEET.
       "FAIR" INDICATES FEW OR NO CLOUDS BELOW 12,000 FEET WITH NO
       SIGNIFICANT WEATHER AND/OR OBSTRUCTIONS TO VISIBILITY.

  * THESE STATIONS DO NOT REPORT WEATHER SUCH AS RAIN...SNOW OR FOG.

NEZ001>004-019>022-054>056-241100-
NEBRASKA PANHANDLE

CITY           SKY/WX    TMP DP  RH WIND       PRES   REMARKS
SCOTTSBLUFF    CLEAR     39  36  89 N5        29.89S
ALLIANCE       CLEAR     34  32  92 CALM      29.88S
CHADRON        CLEAR     44  39  82 N3        29.86R
KIMBALL        CLEAR     41  38  91 CALM      29.92S
SIDNEY         CLEAR     38  37  97 NW8       29.91R WCI  32
$$

NEZ057>060-069>072-079>082-241100-
SOUTHWEST NEBRASKA

CITY           SKY/WX    TMP DP  RH WIND       PRES   REMARKS
NORTH PLATTE   CLOUDY    52  48  86 CALM      29.88R
IMPERIAL       LGT RAIN  55  49  80 E22       29.84F
LEXINGTON      CLOUDY    54  50  87 NW9       29.86R
MCCOOK         CLOUDY    55  49  80 N7        29.88R
OGALLALA       CLOUDY    47  43  84 CALM      29.89R
$$

NEZ005>010-023>029-035>040-094-241100-
NORTH CENTRAL NEBRASKA

CITY           SKY/WX    TMP DP  RH WIND       PRES   REMARKS
VALENTINE      CLEAR     46  41  82 SW5       29.83R
AINSWORTH      CLEAR     52  43  71 CALM      29.83S
BROKEN BOW     CLOUDY    47  44  90 CALM      29.84F
O`NEILL        CLOUDY    52  46  81 SW5       29.83S
ORD            CLOUDY    52  51  97 N7        29.80F
THEDFORD       CLEAR     49  44  83 SW5       29.87R
$$

NEZ041-046>049-061>064-073>077-083>087-241100-
SOUTH CENTRAL NEBRASKA

CITY           SKY/WX    TMP DP  RH WIND       PRES   REMARKS
GRAND ISLAND   CLOUDY    58  58 100 CALM      29.83F FOG
AURORA         CLOUDY    60  59  99 NW5       29.83R
HASTINGS       CLOUDY    61  60  97 S5        29.83S
HEBRON         CLOUDY    63  58  83 N3        29.80F
HOLDREGE       CLOUDY    62  60  94 NW3       29.83R
KEARNEY *      CLOUDY    61  59  94 W3        29.85F
YORK           CLOUDY    57  57 100 SE3       29.82F
$$

NEZ011>018-030>034-042>045-241100-
NORTHEAST NEBRASKA

CITY           SKY/WX    TMP DP  RH WIND       PRES   REMARKS
NORFOLK        CLOUDY    55  53  93 CALM      29.82S
ALBION         CLOUDY    57  55  91 CALM      29.82F
BLAIR          MOCLDY    60  58  94 SE3       29.84R
FREMONT        CLOUDY    58  58  99 E3        29.84S
TEKAMAH        CLOUDY    59  58  96 S6        29.83S
WAYNE          MOCLDY    56  55  95 SE6       29.83F
$$

NEZ050>053-065>068-078-088>093-241100-
SOUTHEAST NEBRASKA

CITY           SKY/WX    TMP DP  RH WIND       PRES   REMARKS
LINCOLN        CLOUDY    60  58  92 NE5       29.83R
OMAHA EPPLEY   CLOUDY    60  57  89 SE3       29.83S
BEATRICE       CLOUDY    65  59  82 S3        29.82S
FALLS CITY     CLOUDY    67  61  81 S14G24    29.81R
NEBRASKA CITY  CLOUDY    62  62 100 CALM      29.85R
PLATTSMOUTH    CLOUDY    63  63  98 SE5       29.84R
$$

NEZ044-045-051>053-067-241100-
OMAHA AREA

CITY           SKY/WX    TMP DP  RH WIND       PRES   REMARKS
OMAHA EPPLEY   CLOUDY    60  57  89 SE3       29.83S
BLAIR          MOCLDY    60  58  94 SE3       29.84R
FREMONT        CLOUDY    58  58  99 E3        29.84S
MILLARD        CLOUDY    60  59  95 CALM      29.83S
OFFUTT AFB     CLOUDY    61  61 100 NE3       29.83R
PLATTSMOUTH    CLOUDY    63  63  98 SE5       29.84R
WAHOO          FAIR      59  57  95 E3        29.83R
$$



USA.gov is the U.S. government's official web portal to all federal, state and local government web resources and services.